Regional Weather Roundup
Issued by NWS

Home | Current Version | Previous Version | Text Only | Print | Product List | Glossary Off
Versions: 1 2 3 4 5 6 7 8 9 10 11 12 13 14 15 16 17 18 19 20 21 22 23 24 25 26 27 28 29 30 31 32 33 34 35 36 37 38 39 40 41 42 43 44 45 46 47 48 49 50

000
ASUS43 KLMK 212310
RWRKY
KENTUCKY REGIONAL WEATHER ROUNDUP
NATIONAL WEATHER SERVICE LOUISVILLE KY
600 PM EST WED FEB 21 2018

NOTE "FAIR" INDICATES FEW OR NO CLOUDS BELOW 12,000 FEET
WITH NO SIGNIFICANT WEATHER AND/OR OBSTRUCTIONS TO VISIBILITY.

KYZ001>023-026-027-061>063-070>075-220000-
WESTERN AND SOUTH CENTRAL KENTUCKY

CITY           SKY/WX    TMP DP  RH WIND       PRES   REMARKS
PADUCAH        LGT RAIN  39  36  89 N10       30.44F FOG     WCI  32
HENDERSON      LGT RAIN  40  38  93 N7        30.45F
OWENSBORO      LGT RAIN  43  41  93 N10       30.43F
HOPKINSVILLE   LGT RAIN  43  43  99 N10       30.37S
BOWLING GREEN  RAIN      49  48  97 NW8       30.36R FOG
GLASGOW        LGT RAIN N/A N/A N/A NE5       30.35R
$$

KYZ024-025-028>034-038-045-046-053-220000-
NORTH CENTRAL KENTUCKY

CITY           SKY/WX    TMP DP  RH WIND       PRES   REMARKS
LOUISVILLE/SDF LGT RAIN  48  46  93 N9        30.42S
LOUISVILLE/LOU LGT RAIN  48  48 100 N7        30.42S FOG
FORT KNOX      LGT RAIN  46  46 100 N7        30.43R
$$

KYZ035>037-039>044-047>052-055>060-089>105-220000-
NORTHEAST KENTUCKY

CITY           SKY/WX    TMP DP  RH WIND       PRES   REMARKS
LEXINGTON      CLOUDY    52  49  89 N14       30.38R
COVINGTON      LGT RAIN  45  45 100 N14       30.44R
FRANKFORT      LGT RAIN  50  46  86 N6        30.41R FOG
$$

KYZ054-064>069-076>088-106>120-220000-
SOUTHEAST KENTUCKY

CITY           SKY/WX    TMP DP  RH WIND       PRES   REMARKS
JACKSON        MOCLDY    60  58  92 NE3       30.34S
LONDON         CLOUDY    61  58  90 NE8       30.33R
SOMERSET       CLOUDY    61  52  72 MISG      30.34R
MIDDLESBORO    FAIR      73  61  65 CALM      30.29S
MONTICELLO     NOT AVBL
$$





USA.gov is the U.S. government's official web portal to all federal, state and local government web resources and services.